Date String (YYYY-MM-DD hh:mm:ss) UTC,Instrument flags,absolute air pressure of the measurement (hPa),sample flow rate (lpm),inlet stack bypass flow (lpm),air temperature of the measurement (°C),ambient temperature measured by the external sensor (°C),aerosol sample conditioner tube jacket temperature (°C),OPC LED temperature (°C),internal box temperature (°C),relative humidity of the measurement (%),span deviation,mass concentration of particles derived from Lorenz-Mie calculation of OPC scattering (μg/m³),mass concentration of particles derived from Lorenz-Mie calculation of OPC scattering (μg/m³),mass concentration of particles derived from Lorenz-Mie calculation of OPC scattering (μg/m³)
DateTimeUTC,F1_M11,P_M11,Q1_M11,Q2_M11,T1_M11,T2_M11,T3_M11,T4_M11,T5_M11,U1_M11,ZSPAN_M11,X2_M11,X0_M11,X1_M11
2023-11-21 17:00:00,SystemResetWarning,0840.8,4.99,000.00,020.7,020.1,000.0,028.7,022.0,15.6,0000.0,0001.41,0004.73,0001.18
2023-11-21 17:01:00,SystemResetWarning,0840.8,4.99,000.00,020.7,020.1,000.0,028.8,022.0,15.6,0000.0,0001.38,0005.24,0001.17
2023-11-21 17:02:00,SystemResetWarning,0840.8,5.00,000.00,020.7,020.1,000.0,028.8,022.0,15.5,0000.0,0001.35,0005.58,0001.16
2023-11-21 17:03:00,SystemResetWarning,0840.8,5.01,000.00,020.7,020.2,000.0,028.8,022.1,15.4,0000.0,0001.33,0006.16,0001.15
2023-11-21 17:04:00,SystemResetWarning,0840.8,5.00,000.00,020.8,020.2,000.0,028.8,022.1,15.4,0000.0,0001.27,0005.64,0001.13
2023-11-21 17:05:00,SystemResetWarning,0840.8,5.00,000.00,020.8,020.2,000.0,028.8,022.2,15.3,0000.0,0001.25,0005.29,0001.12
2023-11-21 17:06:00,SystemResetWarning,0840.8,5.01,000.00,020.8,020.2,000.0,028.9,022.2,15.1,0000.0,0001.26,0005.26,0001.12
2023-11-21 17:07:00,SystemResetWarning,0840.8,5.00,000.00,020.8,020.3,000.0,028.9,022.2,15.1,0000.0,0001.24,0005.20,0001.12
2023-11-21 17:08:00,SystemResetWarning,0840.8,4.99,000.00,020.8,020.3,000.0,028.9,022.2,15.1,0000.0,0001.24,0005.20,0001.12
2023-11-21 17:09:00,SystemResetWarning,0840.8,5.00,000.00,020.9,020.3,000.0,028.9,022.3,15.1,0000.0,0001.23,0005.14,0001.11
2023-11-21 17:10:00,SystemResetWarning,0840.8,5.00,000.00,020.9,020.3,000.0,028.9,022.3,15.2,0000.0,0001.28,0005.04,0001.11
2023-11-21 17:11:00,SystemResetWarning,0840.8,5.00,000.00,020.9,020.4,000.0,029.0,022.3,15.1,0000.0,0001.30,0004.79,0001.13
2023-11-21 17:12:00,SystemResetWarning,0840.8,5.00,000.00,020.9,020.4,000.0,029.0,022.3,15.0,0000.0,0001.31,0003.83,0001.13
2023-11-21 17:13:00,SystemResetWarning,0840.9,5.00,000.00,021.0,020.4,000.0,029.0,022.4,15.0,0000.0,0001.32,0002.61,0001.14
2023-11-21 17:14:00,SystemResetWarning,0840.8,5.01,000.00,021.0,020.5,000.0,029.0,022.4,15.0,0000.0,0001.31,0001.92,0001.14
2023-11-21 17:15:00,SystemResetWarning,0840.9,5.00,000.00,021.0,020.5,000.0,029.0,022.4,15.2,0000.0,0001.31,0001.93,0001.14
2023-11-21 17:16:00,SystemResetWarning,0840.9,4.99,000.00,021.0,020.5,000.0,029.1,022.4,14.9,0000.0,0001.31,0001.92,0001.14
2023-11-21 17:17:00,SystemResetWarning,0840.8,5.00,000.00,021.1,020.5,000.0,029.1,022.4,14.8,0000.0,0001.31,0001.91,0001.13
2023-11-21 17:18:00,SystemResetWarning,0840.8,5.00,000.00,021.1,020.5,000.0,029.1,022.5,15.1,0000.0,0001.30,0001.90,0001.13
2023-11-21 17:19:00,SystemResetWarning,0840.8,4.99,000.00,021.1,020.6,000.0,029.1,022.5,15.2,0000.0,0001.30,0001.89,0001.13
2023-11-21 17:20:00,SystemResetWarning,0840.8,5.00,000.00,021.1,020.6,000.0,029.1,022.5,15.2,0000.0,0001.32,0001.91,0001.13
2023-11-21 17:21:00,SystemResetWarning,0840.9,5.00,000.00,021.2,020.6,000.0,029.2,022.6,15.2,0000.0,0001.28,0001.73,0001.12
2023-11-21 17:22:00,SystemResetWarning,0840.9,5.00,000.00,021.2,020.6,000.0,029.2,022.6,14.9,0000.0,0001.26,0001.69,0001.10
2023-11-21 17:23:00,SystemResetWarning,0840.9,5.00,000.00,021.2,020.7,000.0,029.2,022.6,14.7,0000.0,0001.23,0001.62,0001.09
2023-11-21 17:24:00,SystemResetWarning,0840.9,5.00,000.00,021.2,020.7,000.0,029.2,022.6,14.7,0000.0,0001.24,0001.66,0001.09
2023-11-21 17:25:00,SystemResetWarning,0840.9,5.00,000.00,021.2,020.7,000.0,029.3,022.6,14.7,0000.0,0001.23,0001.65,0001.09
2023-11-21 17:26:00,SystemResetWarning,0840.9,5.00,000.00,021.3,020.7,000.0,029.3,022.6,14.4,0000.0,0001.24,0002.88,0001.09
2023-11-21 17:27:00,SystemResetWarning,0840.9,5.01,000.00,021.3,020.7,000.0,029.3,022.6,14.3,0000.0,0001.27,0003.15,0001.10
2023-11-21 17:28:00,SystemResetWarning,0840.9,4.99,000.00,021.3,020.7,000.0,029.3,022.7,14.3,0000.0,0001.25,0003.12,0001.11
2023-11-21 17:29:00,SystemResetWarning,0840.8,5.00,000.00,021.3,020.8,000.0,029.3,022.7,14.2,0000.0,0001.28,0003.18,0001.12
2023-11-21 17:30:00,SystemResetWarning,0840.8,5.01,000.00,021.3,020.8,000.0,029.4,022.7,14.4,0000.0,0001.29,0003.20,0001.11
2023-11-21 17:31:00,SystemResetWarning,0840.8,5.00,000.00,021.3,020.8,000.0,029.4,022.7,14.1,0000.0,0001.26,0003.13,0001.10
2023-11-21 17:32:00,SystemResetWarning,0840.8,5.00,000.00,021.4,020.8,000.0,029.4,022.7,14.2,0000.0,0001.24,0003.07,0001.10
2023-11-21 17:33:00,SystemResetWarning,0840.8,4.99,000.00,021.4,020.8,000.0,029.4,022.8,13.7,0000.0,0001.22,0003.00,0001.09
2023-11-21 17:34:00,SystemResetWarning,0840.8,5.00,000.00,021.4,020.8,000.0,029.4,022.8,14.1,0000.0,0001.21,0003.01,0001.08
2023-11-21 17:35:00,SystemResetWarning,0840.8,5.00,000.00,021.4,020.9,000.0,029.5,022.8,14.3,0000.0,0001.19,0002.91,0001.07
2023-11-21 17:36:00,SystemResetWarning,0840.8,5.00,000.00,021.5,020.9,000.0,029.5,022.8,14.1,0000.0,0001.17,0002.90,0001.06
2023-11-21 17:37:00,SystemResetWarning,0840.7,5.01,000.00,021.5,020.9,000.0,029.5,022.8,14.0,0000.0,0001.18,0001.98,0001.05
2023-11-21 17:38:00,SystemResetWarning,0840.7,5.01,000.00,021.5,020.9,000.0,029.5,022.9,14.0,0000.0,0001.14,0002.03,0001.03
2023-11-21 17:39:00,SystemResetWarning,0840.7,5.00,000.00,021.5,020.9,000.0,029.5,022.9,14.1,0000.0,0001.14,0002.13,0001.02
2023-11-21 17:40:00,SystemResetWarning,0840.8,5.01,000.00,021.5,021.0,000.0,029.6,022.9,14.2,0000.0,0001.12,0002.11,0001.01
2023-11-21 17:41:00,SystemResetWarning,0840.8,5.00,000.00,021.6,021.0,000.0,029.6,023.0,14.2,0000.0,0001.10,0002.08,0001.00
2023-11-21 17:42:00,SystemResetWarning,0840.8,5.00,000.00,021.6,021.0,000.0,029.6,023.0,14.1,0000.0,0001.10,0002.10,0001.00
2023-11-21 17:43:00,SystemResetWarning,0840.8,5.00,000.00,021.6,021.0,000.0,029.6,023.0,14.1,0000.0,0001.15,0002.20,0001.01
2023-11-21 17:44:00,SystemResetWarning,0840.7,5.00,000.00,021.6,021.1,000.0,029.6,023.0,14.0,0000.0,0001.19,0002.37,0001.01
2023-11-21 17:45:00,SystemResetWarning,0840.8,4.99,000.00,021.6,021.1,000.0,029.7,023.0,14.0,0000.0,0001.22,0002.49,0001.02
2023-11-21 17:46:00,SystemResetWarning,0840.8,5.00,000.00,021.7,021.1,000.0,029.7,023.0,14.1,0000.0,0001.25,0002.55,0001.03
2023-11-21 17:47:00,SystemResetWarning,0840.8,5.00,000.00,021.7,021.1,000.0,029.7,023.0,14.1,0000.0,0001.27,0002.99,0001.03
2023-11-21 17:48:00,SystemResetWarning,0840.8,5.01,000.00,021.7,021.1,000.0,029.7,023.1,13.8,0000.0,0001.30,0003.79,0001.02
2023-11-21 17:49:00,SystemResetWarning,0840.8,5.01,000.00,021.7,021.1,000.0,029.7,023.1,13.7,0000.0,0001.34,0003.81,0001.04
2023-11-21 17:50:00,SystemResetWarning,0840.7,5.00,000.00,021.7,021.2,000.0,029.8,023.1,13.6,0000.0,0001.38,0004.32,0001.05
2023-11-21 17:51:00,SystemResetWarning,0840.7,4.99,000.00,021.7,021.2,000.0,029.8,023.1,13.6,0000.0,0001.40,0004.36,0001.06
2023-11-21 17:52:00,SystemResetWarning,0840.7,5.00,000.00,021.8,021.2,000.0,029.8,023.2,13.7,0000.0,0001.42,0004.37,0001.06
2023-11-21 17:53:00,SystemResetWarning,0840.7,5.00,000.00,021.8,021.2,000.0,029.8,023.2,13.8,0000.0,0001.45,0004.42,0001.07
2023-11-21 17:54:00,SystemResetWarning,0840.6,5.00,000.00,021.8,021.2,000.0,029.8,023.2,13.8,0000.0,0001.44,0004.41,0001.08
2023-11-21 17:55:00,SystemResetWarning,0840.6,5.00,000.00,021.8,021.3,000.0,029.9,023.2,13.8,0000.0,0001.42,0004.91,0001.08
2023-11-21 17:56:00,SystemResetWarning,0840.6,5.00,000.00,021.8,021.3,000.0,029.9,023.2,13.9,0000.0,0001.41,0005.00,0001.09
2023-11-21 17:57:00,SystemResetWarning,0840.6,5.01,000.00,021.9,021.3,000.0,029.9,023.2,13.7,0000.0,0001.38,0004.97,0001.08
2023-11-21 17:58:00,SystemResetWarning,0840.6,5.00,000.00,021.9,021.3,000.0,029.9,023.2,13.9,0000.0,0001.39,0004.79,0001.08
2023-11-21 17:59:00,SystemResetWarning,0840.6,5.00,000.00,021.9,021.3,000.0,029.9,023.3,13.8,0000.0,0001.36,0004.19,0001.09
